GFSMW_250_spd_141.txt.gz
Wind_Speed
81 86 91 93 93 94 96 101 101 101 105 102 102 100 98 90 89 82 79 77 70 59 59 62 59 60 57 59 56 52 46 39 35 35 38 39 37 32 31 28 28 30 31
87 89 92 90 92 94 100 102 109 110 109 108 105 105 99 93 88 85 76 75 74 63 58 64 61 62 58 60 58 54 50 43 38 38 39 40 37 36 33 32 31 34 35
85 87 90 89 90 97 104 109 110 112 107 105 106 93 91 83 77 78 79 73 72 68 61 64 66 65 60 60 60 56 53 48 39 41 44 42 39 38 36 34 34 36 36
83 87 87 92 97 106 109 107 106 104 107 102 104 97 80 72 78 80 79 72 74 73 64 62 66 66 63 61 63 58 54 52 40 38 41 42 42 40 38 37 38 38 39
82 79 82 90 100 102 104 100 95 88 83 78 77 88 77 74 72 79 77 74 71 77 72 65 63 69 66 63 63 60 56 53 41 39 40 41 41 41 40 39 39 39 39
83 84 88 95 92 90 88 82 71 72 70 67 62 64 72 77 72 66 69 74 76 77 68 61 61 71 69 65 64 62 58 53 45 42 41 40 41 40 39 40 40 40 38
78 84 87 85 83 74 66 66 61 59 56 53 55 55 64 64 65 65 64 62 72 74 61 59 57 69 72 69 66 65 60 56 49 45 40 41 42 41 40 41 41 42 42
75 77 75 68 62 59 53 43 40 39 39 42 48 50 47 55 61 59 57 57 58 78 62 67 63 68 72 71 67 67 63 59 52 47 43 41 43 41 42 43 42 43 43
68 71 61 55 49 38 35 27 30 28 28 34 41 47 54 61 60 64 56 53 69 73 86 75 71 71 70 73 70 68 64 62 54 50 44 43 45 44 45 44 42 43 42
61 60 48 45 37 32 32 26 27 24 22 26 34 40 48 55 59 53 40 44 67 84 91 86 87 69 64 71 71 68 64 62 56 50 45 44 44 44 45 44 43 40 42
55 48 38 37 36 32 26 26 24 16 16 22 30 33 40 48 63 62 56 11 48 74 69 81 84 68 62 67 70 66 62 59 56 47 45 46 47 47 46 42 42 41 43
45 38 31 35 32 27 25 22 17 13 14 23 30 35 43 52 61 72 91 95 85 93 106 94 69 67 60 62 63 63 54 54 49 47 45 44 45 44 47 42 44 45 46
38 36 29 25 31 23 14 16 16 19 23 29 30 34 41 43 54 73 82 71 98 98 92 72 61 59 56 60 60 59 51 50 47 42 36 39 39 42 43 45 46 46 45
34 34 29 31 18 18 16 13 18 23 33 37 44 45 49 46 55 63 67 81 82 76 85 67 56 51 52 54 56 53 48 44 42 36 40 39 34 37 39 41 43 45 46
31 34 36 32 19 10 9 12 15 22 33 40 47 50 49 50 54 58 62 56 54 59 60 50 43 46 56 52 51 50 48 45 42 38 38 39 38 40 45 49 49 51 52
32 41 41 32 23 5 4 9 16 18 24 33 42 46 51 54 54 54 54 57 60 51 44 43 46 52 52 50 50 52 49 48 47 42 43 43 45 44 51 55 55 54 54
39 46 45 32 20 14 12 23 26 24 22 24 25 29 39 44 45 45 45 46 49 47 44 43 48 52 54 51 49 50 53 52 54 53 50 41 44 48 53 57 56 55 57
40 51 46 37 26 26 26 31 34 33 30 31 28 29 31 32 38 39 41 41 47 43 38 42 41 43 47 52 51 48 52 54 57 54 47 45 45 51 52 60 59 61 61
42 55 48 42 39 36 36 42 44 42 39 35 37 38 32 36 41 42 40 44 46 46 47 43 48 50 50 51 54 52 52 52 60 56 55 59 61 60 66 65 68 68 66
41 59 55 50 48 41 44 51 50 45 48 48 41 40 43 43 45 48 40 45 41 44 41 46 50 52 55 50 51 48 52 58 49 50 68 57 60 72 67 68 69 66 64
41 58 60 55 52 48 52 54 58 58 55 50 50 48 50 46 44 46 45 50 52 53 49 55 56 54 56 52 56 57 60 53 54 64 64 65 65 66 66 65 63 63 65
45 49 66 64 59 57 61 61 66 65 59 61 58 58 57 56 57 58 55 54 56 60 58 59 59 58 55 58 59 61 59 65 69 69 72 70 69 73 78 79 84 84 87
46 49 65 68 66 61 67 69 68 71 67 67 68 66 62 63 67 66 66 66 62 63 64 70 71 69 65 67 69 70 72 68 66 69 72 77 79 83 86 87 86 88 89
45 55 55 66 73 69 70 71 75 79 77 75 77 73 69 68 68 69 70 73 72 74 75 70 71 71 68 74 70 76 78 79 79 83 85 87 87 88 87 88 93 93 96
53 52 55 62 75 78 70 75 80 81 83 84 84 83 80 74 70 72 78 75 74 74 80 79 78 78 81 83 82 80 80 84 85 85 86 90 93 93 96 97 99 100 100
54 53 58 57 68 83 81 79 80 79 84 87 88 87 89 87 83 76 75 80 83 83 82 86 85 85 88 87 87 85 85 86 87 88 92 95 96 97 99 102 104 104 105

GFSMW_250_spd_144.txt.gz
Wind_Speed
92 91 91 91 91 90 87 86 87 93 95 95 101 99 98 98 97 94 86 83 80 78 72 75 67 49 48 57 60 55 54 49 47 47 41 39 35 41 40 36 33 32 30
103 101 96 94 90 89 87 87 89 93 100 102 102 100 102 99 97 99 94 85 84 83 73 74 69 53 46 54 64 61 54 51 50 48 45 43 40 39 41 40 37 33 32
103 97 96 94 90 88 87 88 91 96 99 103 103 102 102 101 98 94 89 79 79 86 81 76 71 60 46 50 64 64 56 55 52 51 49 46 41 42 42 41 38 35 34
92 92 91 89 85 86 84 83 89 95 100 100 100 101 95 97 96 91 83 66 56 48 72 77 77 67 53 50 58 66 65 56 53 53 51 45 43 45 42 41 41 36 35
89 89 88 86 88 84 85 89 90 94 95 95 94 91 86 85 83 79 72 60 38 63 90 77 80 63 52 45 53 64 67 60 56 55 52 46 44 42 43 44 43 38 38
87 88 87 86 81 86 86 82 83 83 78 77 72 69 65 66 70 73 65 56 62 62 73 77 72 59 54 47 51 55 65 66 59 55 56 50 45 43 42 40 37 36 36
84 83 84 81 82 81 79 75 69 72 69 63 62 60 53 52 54 64 56 48 75 69 67 45 58 60 60 57 44 54 62 71 63 59 58 52 46 44 39 40 38 37 38
78 79 79 75 73 68 69 62 60 59 59 53 52 53 50 41 41 47 41 44 62 51 37 49 80 76 68 68 68 57 58 71 69 62 59 56 49 46 41 41 39 40 40
74 75 75 68 63 60 57 53 53 52 42 41 38 39 42 35 29 38 39 61 64 54 53 54 82 95 82 82 81 70 67 68 73 66 60 58 51 50 44 42 39 40 43
74 76 76 65 58 54 49 44 37 33 30 22 22 26 31 26 28 35 56 83 67 67 67 70 70 75 87 97 89 79 67 64 72 68 63 60 56 51 45 43 43 42 40
75 73 69 62 51 47 38 34 34 23 21 15 15 15 18 23 33 46 72 83 81 76 69 69 71 84 77 86 80 74 70 58 68 68 66 61 61 53 48 45 47 43 39
70 62 61 56 45 39 28 29 23 19 18 12 6 7 14 23 36 55 74 82 81 79 71 83 94 99 82 77 80 73 70 55 56 67 67 63 63 56 50 49 49 45 40
59 54 56 48 36 31 29 29 25 17 14 8 9 26 42 63 72 64 75 81 87 73 59 65 54 53 65 66 61 62 57 61 54 59 68 66 60 55 54 51 48 46 39
55 50 54 42 33 28 29 26 24 12 13 16 21 40 75 76 79 72 67 74 69 51 36 23 63 54 62 67 65 68 64 56 52 54 63 61 52 52 53 51 44 37 31
55 48 51 40 31 30 29 22 25 17 21 21 41 55 84 82 81 78 78 76 66 43 29 25 17 32 55 73 66 38 41 47 53 51 54 52 45 51 54 51 44 39 36
50 44 50 36 32 34 29 29 20 23 27 34 43 61 77 83 85 86 83 75 61 58 67 57 58 36 54 66 71 74 63 55 58 52 53 47 48 51 53 52 44 40 40
49 41 48 35 38 39 31 29 23 26 29 42 46 63 72 80 92 90 86 72 68 69 84 88 85 65 60 58 50 51 60 62 57 53 52 50 50 55 52 48 44 46 43
46 43 44 40 38 41 35 29 23 29 33 40 50 54 69 72 80 87 80 82 79 83 85 87 93 93 75 71 60 53 56 58 56 58 53 53 53 54 51 47 52 54 51
50 46 44 40 38 45 42 31 27 28 34 38 45 50 61 62 66 75 75 78 73 67 91 95 96 81 87 81 63 64 60 58 57 58 59 58 56 58 61 59 61 55 59
54 49 45 43 39 49 45 38 28 34 40 41 43 44 52 53 58 63 78 74 77 75 65 72 75 86 74 71 76 72 67 60 58 57 54 58 59 59 57 63 66 69 69
55 49 42 45 41 50 48 43 38 40 46 47 48 48 49 54 60 57 61 62 69 71 72 72 68 68 69 70 72 67 62 61 58 51 51 57 56 63 67 69 65 65 70
53 49 45 43 44 47 53 51 45 37 53 54 55 54 53 59 61 59 57 58 59 61 62 65 66 67 67 68 65 62 65 59 57 58 59 59 63 64 63 62 62 65 64
57 49 46 46 47 46 55 52 51 41 58 62 60 59 58 57 56 53 56 60 61 62 65 64 60 61 62 63 59 59 58 57 60 65 59 57 63 67 62 61 58 67 69
56 49 46 49 49 49 51 53 59 54 64 66 65 67 64 60 61 58 62 62 62 62 63 65 63 60 63 64 63 62 62 62 64 61 68 66 65 71 69 72 76 78 80
54 49 47 49 50 50 49 52 57 62 67 71 73 73 73 68 68 66 69 66 64 66 65 68 63 62 64 60 62 65 67 66 66 66 66 73 74 77 77 77 79 86 86
56 52 49 49 51 49 51 50 58 66 65 76 79 79 81 76 76 76 72 72 72 70 69 68 67 70 66 66 66 67 70 72 72 73 74 78 79 82 80 85 86 87 90

GFSMW_250_spd_150.txt.gz
Wind_Speed
75 72 72 77 81 85 90 93 92 94 95 92 93 97 95 98 95 87 75 74 73 73 74 68 64 61 62 56 50 52 49 49 50 50 44 49 43 45 46 44 44 42 43
78 80 83 85 88 90 94 96 98 96 97 99 102 98 96 90 85 81 79 75 73 73 73 72 70 67 61 64 61 57 55 48 43 42 44 47 48 40 48 51 46 46 44
83 82 86 87 93 97 99 100 102 102 104 109 98 99 94 82 79 77 76 76 75 69 69 70 75 71 58 65 69 64 58 54 41 34 29 26 32 37 50 53 50 47 45
86 88 94 95 95 94 95 99 102 107 106 98 97 96 89 89 85 76 73 72 77 73 70 69 72 74 61 67 74 69 62 49 29 29 31 19 18 32 43 52 52 46 47
75 82 83 88 88 88 91 94 94 95 96 90 89 88 82 78 73 73 70 70 74 75 71 67 69 69 67 65 73 69 64 55 51 50 31 21 22 24 39 49 51 50 49
73 69 73 76 77 78 83 90 92 90 85 82 82 79 72 68 66 65 66 68 68 72 75 72 65 69 65 71 73 61 60 52 46 47 40 29 35 34 33 44 50 50 49
66 71 72 69 69 70 77 82 79 77 80 80 75 73 65 60 58 60 57 63 68 71 73 71 67 63 66 78 71 68 82 60 57 57 53 43 50 42 39 42 50 50 50
76 73 73 69 67 70 70 73 72 71 76 71 65 63 58 56 54 54 52 59 65 67 67 64 63 67 76 86 82 83 60 87 84 63 66 57 55 52 46 38 43 49 49
81 78 78 74 73 73 72 78 70 69 70 63 58 54 53 54 51 43 43 47 51 55 55 57 60 69 86 94 89 87 79 74 78 80 68 62 58 56 47 31 32 31 44
83 78 84 83 80 73 78 79 69 69 66 58 52 49 52 50 44 37 37 34 35 38 42 47 52 75 97 94 93 86 82 77 66 76 65 64 60 52 42 28 30 28 35
80 80 89 87 83 82 82 78 70 68 64 55 44 43 46 40 37 35 31 29 26 31 43 44 50 80 99 102 98 95 100 91 89 72 72 64 60 54 48 44 39 41 36
79 88 91 89 85 82 85 79 70 59 59 48 38 38 39 36 33 33 29 27 29 34 41 47 59 91 105 109 105 105 93 87 73 74 61 59 52 57 50 51 53 62 62
91 92 93 89 87 85 85 72 61 53 54 42 36 34 35 33 31 31 29 28 32 38 44 52 64 96 110 105 111 100 93 88 78 66 54 57 54 55 52 58 61 62 56
97 93 87 87 88 89 81 74 56 52 51 40 34 33 34 32 31 28 28 27 31 36 43 55 71 95 99 101 104 106 86 75 75 73 87 63 56 53 54 54 54 58 49
93 91 83 83 90 87 80 69 59 51 50 41 31 32 32 32 35 31 31 32 33 38 47 59 71 92 97 101 85 72 75 79 66 63 54 64 66 52 56 56 60 56 41
92 84 81 87 91 82 78 72 64 48 47 42 33 31 30 39 37 37 41 43 43 47 52 59 75 91 93 99 78 72 74 66 61 58 60 70 70 63 67 65 60 51 48
87 80 86 90 89 83 83 69 57 47 47 42 36 32 33 43 41 48 52 53 55 58 61 70 80 84 85 86 88 84 70 73 60 62 45 31 58 72 72 61 52 52 46
81 81 85 89 90 89 79 70 57 48 48 44 38 38 40 45 48 55 57 58 62 67 70 75 76 75 84 81 80 80 78 78 81 69 60 70 63 61 57 47 49 52 55
80 83 85 92 90 87 80 70 56 48 48 45 40 41 43 45 55 59 64 61 63 72 76 79 83 85 82 83 84 88 86 81 81 69 60 65 62 61 55 53 51 50 52
84 87 89 92 86 83 77 68 56 49 48 47 41 42 47 49 63 63 70 67 68 74 82 83 91 90 88 86 91 89 90 90 81 66 61 50 50 60 55 51 49 52 47
85 90 92 93 86 82 75 64 58 53 50 49 44 44 53 58 61 69 71 73 68 73 80 82 93 97 100 99 94 94 93 92 77 84 66 61 58 58 55 52 46 44 56
90 92 94 87 83 76 69 64 62 57 53 51 46 45 56 61 67 78 75 73 73 74 82 83 93 98 103 106 99 97 94 96 89 79 66 64 66 70 54 52 59 67 67
92 93 85 82 78 71 70 67 62 58 52 50 48 44 55 65 72 77 83 75 81 81 85 85 91 95 99 100 99 101 100 103 100 95 82 78 70 66 61 66 68 68 70
86 84 82 80 75 71 67 62 57 53 51 49 47 43 54 65 71 81 83 80 85 90 92 98 92 96 99 100 103 102 103 108 107 108 104 91 87 84 80 71 72 67 65
82 83 79 76 72 67 62 58 53 49 48 49 47 42 53 64 75 81 89 86 85 96 100 96 97 100 101 104 107 108 99 109 106 105 100 98 92 90 87 82 80 79 70
82 82 80 73 66 62 59 56 52 47 46 48 46 41 50 63 71 79 88 92 85 98 101 102 103 99 104 96 98 102 101 105 95 100 101 101 106 103 99 95 87 83 81

GFSMW_250_spd_156.txt.gz
Wind_Speed
60 60 61 64 67 73 68 67 68 69 70 72 74 78 81 85 90 94 97 93 89 89 83 75 71 68 64 68 64 61 60 59 58 55 53 53 55 53 54 51 48 44 42
63 63 63 66 68 68 68 67 65 65 68 69 69 71 72 71 79 80 87 90 88 82 78 74 71 67 65 62 65 63 59 62 58 55 57 53 56 53 56 55 51 48 45
64 63 62 63 67 70 70 69 69 71 71 70 69 71 73 72 73 74 78 86 88 84 78 78 73 69 65 64 66 68 63 63 63 65 56 52 52 60 54 55 52 47 46
60 60 62 65 66 68 68 70 71 73 72 71 72 70 70 73 72 75 75 83 89 84 81 76 68 64 64 65 64 67 68 71 65 69 57 54 57 57 54 51 49 47 47
63 66 67 67 67 66 68 71 72 74 73 77 77 76 76 78 71 73 77 82 87 74 74 68 64 60 58 59 62 65 70 73 75 71 68 60 57 59 55 48 47 49 49
67 70 69 69 71 70 69 74 75 75 76 79 82 83 79 79 76 78 77 78 82 73 69 65 60 57 57 54 58 64 68 75 80 77 73 66 61 57 56 54 52 48 46
71 71 71 70 73 75 78 79 80 76 78 81 84 83 80 77 81 81 78 81 82 72 66 62 54 51 55 58 57 61 67 77 82 80 77 70 59 56 54 54 48 48 44
76 78 79 79 80 77 78 82 83 82 84 84 82 86 81 79 83 83 79 79 82 66 64 57 53 50 53 56 54 56 65 77 83 83 84 71 63 40 63 57 56 54 44
78 79 85 85 84 85 85 87 86 85 89 84 81 85 84 82 85 85 81 81 81 65 59 58 55 50 51 54 53 52 61 71 82 80 89 79 74 73 67 70 60 48 38
85 85 86 90 91 88 90 92 93 88 86 84 80 83 81 86 83 86 79 77 78 63 58 59 54 51 46 48 47 46 54 66 77 79 95 90 84 75 77 77 62 48 44
91 95 95 93 95 93 95 95 89 89 87 81 80 81 86 88 82 86 75 75 75 64 57 56 55 46 41 44 40 40 47 58 72 79 98 96 98 80 76 77 65 50 41
98 99 97 98 99 98 100 99 94 94 89 84 82 84 86 83 83 83 72 71 73 66 55 54 53 45 40 37 36 37 41 50 66 77 102 104 89 83 79 72 64 57 52
100 101 103 104 105 106 101 98 100 96 88 84 85 86 84 83 80 76 69 68 71 62 54 52 51 42 35 32 35 36 41 50 64 78 104 105 101 93 88 78 77 68 61
105 105 108 109 110 101 98 99 101 93 85 86 86 83 85 81 76 72 68 66 67 57 52 50 49 42 32 31 34 35 40 51 67 80 105 103 103 90 89 86 81 83 73
109 113 112 108 105 103 101 103 98 91 88 89 86 86 80 76 71 68 64 63 62 55 50 48 48 43 32 28 32 34 41 55 70 85 108 102 100 98 97 92 93 83 75
114 113 112 112 108 103 100 97 95 91 89 89 86 80 74 72 70 67 63 61 60 55 49 46 48 44 36 29 29 33 40 55 73 88 115 107 105 105 101 98 100 87 80
115 115 111 108 106 96 93 91 90 88 89 82 74 74 73 73 71 66 62 59 56 54 47 47 49 43 41 31 28 33 39 52 74 89 115 111 109 103 103 108 101 87 85
109 105 105 90 89 90 89 86 88 86 78 73 73 74 75 77 70 66 61 58 53 53 46 48 46 46 42 35 29 31 38 50 69 90 115 112 113 110 107 108 98 92 85
93 97 92 85 86 85 86 88 82 79 77 77 78 76 76 78 68 66 62 55 50 50 47 48 45 46 43 35 32 30 39 46 58 87 109 115 110 107 102 99 86 78 67
88 91 84 81 81 84 87 87 84 82 81 80 78 78 74 72 65 64 58 53 50 51 52 47 46 45 43 35 32 32 35 38 51 84 105 115 116 109 100 91 81 59 57
79 79 78 77 80 85 86 85 84 85 82 81 79 71 69 65 63 60 57 57 56 54 54 49 47 43 41 36 32 34 34 34 48 71 90 118 112 103 96 76 59 58 61
71 71 70 75 80 82 78 78 78 81 79 77 73 67 65 63 61 61 61 58 55 55 51 47 47 41 40 37 34 38 40 37 44 56 73 101 93 94 87 81 67 58 53
66 67 70 74 70 72 75 77 74 74 72 70 69 67 62 59 58 57 55 52 50 50 44 46 45 39 40 38 41 44 46 43 46 51 60 73 83 85 81 82 75 63 55
62 64 65 67 70 68 68 69 70 69 68 67 66 63 60 55 53 54 50 48 47 44 40 48 43 40 42 42 48 51 54 52 56 56 62 71 75 83 84 81 89 62 62
53 56 57 58 60 63 64 65 66 67 66 65 63 59 55 52 49 48 45 44 43 38 41 48 43 42 45 48 53 56 61 63 65 65 68 73 83 85 80 82 79 83 74
41 46 50 54 59 64 67 67 66 64 61 56 53 49 46 44 41 38 39 39 38 36 43 46 44 45 49 52 59 59 64 71 72 73 75 79 84 85 86 89 86 84 85